Location: Newark
(40.9833°N, 0.0333°W)
Time: 00:55:17
(UTC+00:00)

Altair - Pass Details

Date: 01 November 2020
Orbit: 1502 x 1682 km, 47.2° (Epoch: 02 December)

Event Time Altitude Azimuth Distance (km) Brightness Sun altitude
Rises 04:10:10 0° 236° (WSW) 4,627 - -27.1°
Reaches altitude 10° 04:13:09 10° 236° (SW) 3,654 - -26.5°
Exits shadow 04:18:00 37° 234° (SW) 2,201 7.9 -25.6°
Maximum altitude 04:22:22 84° 150° (SSE) 1,541 7.4 -24.8°
Drops below altitude 10° 04:31:53 10° 64° (ENE) 3,769 10.4 -23.0°
Sets 04:35:01 0° 64° (ENE) 4,779 11.2 -22.4°
